Tracking 19476 objects as of 17-Jan-2019
HD Live streaming from Space Station
objects crossing your sky now

COSMOS 1091

Track COSMOS 1091 now!
10-day predictions
COSMOS 1091 is classified as:


NORAD ID: 11320
Int'l Code: 1979-028A
Perigee: 967.2 km
Apogee: 1,012.9 km
Inclination: 82.9 °
Period: 104.8 minutes
Semi major axis: 7361 km
RCS: 2.1761 m2 (large)
Launch date: April 7, 1979
Source: Commonwealth of Independent States (former USSR) (CIS)
Launch site: PLESETSK MISSILE AND SPACE COMPLEX (PKMTR)
aabbcc
Your satellite tracking list
Your tracking list is empty




NASA's NSSDC Master Catalog

Two Line Element Set (TLE):
1 11320U 79028A   19015.97219074 +.00000036 +00000-0 +22163-4 0  9995
2 11320 082.9242 344.8594 0031091 152.2552 265.5773 13.74657397994884
Source of the keplerian elements: AFSPC